C/2010 J1 (Boattini)
Epoch 2010 Feb. 13.0 TT = JDT 2455240.5  
T 2010 Feb. 4.81735 TT                                  Nakano
q   1.6956417            (2000.0)            P               Q
z  +0.0272170      Peri.  333.10713     +0.07170388     -0.72053383
 +/-0.0000370      Node   254.81330     -0.73714275     -0.50410261
e   0.9538496      Incl.  134.38463     -0.67192196     +0.47614237
a  36.74 AU         P     222.7 years
From 575 observations 2010 May 6-July 18, mean residual 0".56.
Residuals in seconds of arc 
2010/                     100511 G96  1.3+  0.4-    100522 B33  0.2-  0.3-  
100506 703 (1.4+  2.0-)   100511 G96  1.1+  0.9-    100522 J51  0.3-  1.3-  
100506 703  0.1-  0.4-    100511 G96  0.7+  0.3-    100522 J01  0.1-  0.1-  
100506 703 (2.5+  3.7-)   100511 G96  0.1-  0.1-    100522 J51  1.1+  0.4-  
100506 703 (2.6+  3.2-)   100511 372  0.6-  0.7+    100522 J01  0.0   0.0   
100506 G96  0.5-  0.2+    100511 D96 (1.6+  4.4-)   100522 J51  1.2+  0.8-  
100506 G96  0.8-  0.2+    100511 D96 (1.1+  3.8-)   100522 J01  0.0   0.1-  
100506 G96  0.6-  0.1+    100512 J47  1.0-  0.4+    100523 B96  1.4-  0.9+  
100506 G96  0.8-  0.3+    100512 J47  1.1-  0.5+    100523 B96  0.0   0.3+  
100506 703  0.4+  0.6-    100512 J47  1.6-  0.3+    100523 B96  1.7-  0.9+  
100506 703 (0.9+  3.3-)   100512 J47  1.2-  0.7-    100523 B96  0.3-  0.8-  
100506 703  0.0   0.6-    100512 H10  0.2+  0.3+    100523 B96  0.2-  0.3-  
100506 703  0.8+  1.3-    100512 H10  0.3+  0.0     100523 B96  0.5-  1.0+  
100506 703 (0.4+  2.0-)   100512 H10  0.0   0.3+    100523 B96  0.2-  0.6+  
100506 H06  0.5+  0.5-    100512 H10  0.1+  0.2+    100523 204  0.1-  0.1+  
100506 H06  0.9+  0.7-    100512 H10  0.1+  0.1+    100523 204  0.2-  0.0   
100506 H06  0.3-  0.1-    100512 H10  0.3-  0.2+    100523 204  0.1-  0.0   
100506 H10  0.5-  0.5-    100512 H10  0.5+  0.3+    100524 B96  0.4-  0.0   
100506 H10  0.1+  0.7-    100512 372  0.7+  0.1-    100524 B96  1.1+  0.3-  
100506 H10  0.1-  0.0     100512 372  1.0+  0.1+    100524 B96  0.7+  0.2+  
100506 E94  0.6-  1.0-    100512 372  0.1+  0.1+    100524 B96  0.3+  0.5+  
100506 H06  1.5-  1.7+    100512 D93  1.0+  0.1+    100524 B96  0.3-  0.5+  
100506 H06  0.8-  1.2+    100512 D93 (2.3-  0.9+)   100524 B96  1.1+  0.0   
100506 H06  1.2-  1.1+    100512 D93 (2.2-  0.0 )   100524 H06  0.7+  0.7+  
100506 H06 (5.7+  3.6-)   100512 473  0.0   0.3+    100524 H06  0.7+  0.4+  
100506 E94  0.9-  0.3+    100512 473  0.4-  0.4+    100524 H06  1.4+  0.3-  
100506 703  0.0   0.3-    100512 585  0.8-  1.4+    100524 703  0.5-  0.3-  
100506 703  0.3+  0.9-    100512 585  0.7-  0.2+    100524 703  1.0-  0.3+  
100506 703  1.3+  0.7-    100512 585  0.8-  0.5+    100524 703  0.7-  0.3-  
100506 703  1.1+  1.4-    100512 585  0.4+  0.3+    100524 703  0.7-  0.5-  
100506 E94  1.1-  0.0     100512 585  0.9-  0.2+    100524 B49  0.4+  0.3+  
100506 E94  0.8+  0.5+    100512 585  0.2-  0.3-    100524 B49  0.3+  0.3-  
100506 E94  0.4-  0.4+    100512 585  0.1+  0.0     100524 B49  0.0   0.4-  
100506 E94  0.3-  0.3-    100512 585  0.5-  0.1-    100524 J51  0.4+  0.2+  
100506 114  0.3+  0.1-    100512 585  0.3-  0.2-    100524 160  0.0   0.7-  
100506 114  0.5-  0.3+    100512 585  0.1+  0.2-    100524 J51  0.3+  0.3+  
100506 114  0.3-  0.2+    100512 585  0.4-  0.4-    100524 160  0.0   0.3-  
100506 114  0.4-  0.1+    100512 585  0.3+  0.1+    100524 160  0.5+  0.2-  
100506 114  0.2-  0.1-    100512 585  0.2-  0.5-    100524 J51  1.3+  0.0   
100506 118  0.8-  0.7+    100512 585  0.3-  0.4-    100525 B96  0.3+  0.8+  
100506 118  1.3-  0.8+    100512 585  0.0   0.1+    100525 B96 (4.6+  0.2+) 
100506 118  1.1-  0.8+    100512 585  0.1-  0.6-    100525 160 (0.8+  3.4+) 
100506 118  1.3-  0.8+    100512 585  0.3+  0.3+    100525 160 (0.7+  3.3+) 
100506 118  1.1-  0.7+    100512 A71  0.2+  0.2+    100525 160 (0.6+  2.0+) 
100506 J04  0.3-  0.4+    100512 A71  0.0   0.0     100526 160  0.0   0.4-  
100506 J04  0.3-  0.3+    100512 A71  0.1+  0.2-    100526 160  0.0   0.2-  
100506 J04  0.2-  0.5+    100513 A71  0.1+  0.1+    100526 160  0.2-  0.1-  
100506 J95  0.2-  0.2+    100513 A71  0.1-  0.1+    100527 473  0.4-  0.2+  
100506 J95  0.2-  0.1+    100513 A71  0.6+  0.4-    100527 473  0.3-  0.3+  
100506 J95  0.3-  0.2+    100513 A71  0.4+  0.1-    100529 J01  0.1+  0.2-  
100507 A79  0.2-  0.6+    100513 H06  0.6+  0.3+    100529 J01  0.1+  0.1-  
100507 A79  0.2-  0.5+    100513 H06  0.6+  0.1+    100529 J01  0.1-  0.3-  
100507 A79  0.6-  0.6+    100513 H06  0.5+  0.4+    100530 I99 (2.6+  0.8-) 
100507 A79  0.3-  0.5+    100513 H10  1.4-  0.7+    100530 I99  0.1+  0.8-  
100507 844  0.3+  0.3+    100513 H10  1.1-  0.6+    100530 I99  0.0   0.0   
100507 844  0.3+  0.5+    100513 H10  0.5-  0.3-    100531 D93  1.7+  1.3+  
100507 844  0.1+  0.3+    100513 H10  0.2-  0.2+    100531 D93  0.7-  0.9+  
100507 844  0.3+  0.1-    100513 H10  0.9-  0.5+    100531 B75  0.6+  1.0+  
100507 844  0.3+  0.6+    100513 D96 (4.1+  1.3-)   100531 B75  0.7+  0.1+  
100507 844  0.1+  0.9+    100513 D96 (3.9+  1.0-)   100531 B33  0.8-  0.3+  
100507 844  0.4+  0.5+    100514 367  0.2-  0.2-    100531 B33  0.1+  0.1+  
100507 844  0.7+  0.5+    100514 367  0.1-  0.5-    100531 B33  0.0   0.0   
100507 844  0.2+  0.2+    100514 367  0.4-  0.1-    100531 B33  0.7-  0.2+  
100507 844  0.3+  0.3+    100514 900  0.1-  0.3-    100531 204  0.2+  0.1+  
100507 844  0.1+  0.3+    100514 900  0.3+  0.0     100531 160  0.6-  0.3+  
100507 844  0.2+  0.4+    100515 A01  0.9+  0.6-    100531 160  0.2-  0.3+  
100507 844  1.0+  0.3+    100515 A01  0.6+  0.2-    100531 160  0.4-  0.1+  
100507 844  0.4+  0.8+    100515 A01  0.0   0.3-    100531 204  0.2+  0.1+  
100507 844  1.0+  0.1+    100515 C23 (4.7-  2.6+)   100601 H06  0.6+  0.1+  
100507 844  0.1-  0.8+    100515 C23 (0.3-  2.5+)   100601 H06  0.5+  0.3+  
100507 844  0.5+  0.1+    100515 C23 (3.6-  2.6+)   100601 H06  0.2+  0.1+  
100507 844  0.2-  0.6+    100515 C23 (7.2-  3.9+)   100601 D93  1.3-  0.6+  
100507 844  0.6+  0.3+    100515 C23 (5.7-  3.4+)   100601 D93  0.2-  0.3+  
100507 H06  0.7+  0.1+    100516 J24  0.2-  0.0     100601 D93  0.0   0.4+  
100507 H06  0.8+  0.0     100516 J24  0.2+  0.6+    100601 349  0.6+  0.3-  
100507 H06  0.3-  0.2-    100516 J24  0.3+  0.2+    100601 349  1.1+  0.3+  
100507 850  0.4-  0.5-    100516 703  0.1+  0.9-    100602 D93  0.2+  0.0   
100507 H10  0.3-  1.9-    100516 703  0.5-  1.0-    100602 D93  0.2-  0.2+  
100507 H10  0.2-  0.7-    100516 703  0.9-  0.2-    100602 D93  0.1+  0.2+  
100507 850  0.2+  0.1+    100516 703 (2.7+  3.9-)   100602 585  0.0   0.9-  
100507 H10  0.1-  0.2+    100516 D88  0.6-  0.3-    100602 585  0.5-  1.3-  
100507 H10  0.0   0.2-    100516 D88  0.2+  0.1-    100602 585 (2.8+  0.4+) 
100507 H10  0.1-  0.1+    100516 D93  1.0+  1.2+    100603 467  1.2-  1.1+  
100507 850  1.2+  0.9-    100516 D93  0.5+  0.1+    100603 467 (2.3+  0.4-) 
100507 H10 (1.1-  2.7+)   100516 D93  0.0   0.9+    100603 D88  0.1-  0.7+  
100507 H10 (2.6+  0.8+)   100516 349  0.6+  0.2-    100603 D88  0.2-  1.1-  
100507 H10  0.1+  0.4+    100516 349  0.2+  0.2+    100603 900  0.1+  0.0   
100507 H10  0.9+  0.9-    100516 J28  0.1-  0.7+    100603 900  0.1-  0.6-  
100507 H10  0.4-  0.7+    100516 J28  0.2+  1.0-    100603 D93  1.8-  0.6-  
100507 H10  0.2-  0.0     100517 D93  0.9+  0.4+    100603 D93  0.2-  0.9+  
100507 H10  0.5+  0.9-    100517 D93 (2.1+  0.1+)   100603 D93 (2.7-  1.2-) 
100507 H10  1.8-  1.2+    100517 D93 (2.2+  0.6+)   100603 473  0.4-  0.1+  
100507 850  0.2-  0.4-    100517 900  0.7-  0.3-    100603 473  0.4-  0.2+  
100507 854  1.3+  0.2-    100517 900  0.6-  0.0     100604 J38  0.4+  0.1+  
100507 854  1.6+  0.2-    100517 D96  0.5-  0.5-    100604 J38  0.5+  0.4+  
100507 854  0.6-  1.0-    100517 D96  1.1-  0.2-    100604 J38  0.5+  0.4+  
100507 H11  0.6+  0.0     100517 585  0.3-  0.1+    100604 367  0.0   0.3-  
100507 H11  0.1-  0.7-    100517 585  1.4-  0.9+    100604 367  0.9+  0.2+  
100507 H06  0.1+  0.3+    100517 585  0.0   0.4-    100604 367  0.3+  0.3+  
100507 926  0.1-  0.6+    100517 585  0.4+  0.2+    100604 B96  0.3+  0.4-  
100507 H11  0.7+  0.5-    100517 585  0.5-  0.8-    100604 B96  0.3+  0.1+  
100507 H11  0.6+  0.4-    100517 585  1.7-  0.2+    100604 B96  0.2+  0.2+  
100507 H06  0.3-  0.1+    100517 585  0.9-  0.5-    100604 B96  1.2-  0.0   
100507 H06  0.4+  0.9-    100517 585  1.0-  0.5-    100604 B96  0.3+  0.5-  
100507 926  0.2+  0.3+    100517 585  0.2-  0.7+    100605 B96  0.5+  0.3-  
100507 926  0.3+  0.2+    100517 B49  0.0   0.2-    100605 A71  0.1-  0.2-  
100507 D96 (2.1+  0.6-)   100517 B49  0.4+  1.5-    100605 A71  0.2+  0.4-  
100507 D96 (2.2+  0.1+)   100517 B49  0.6+  1.0-    100605 A71  0.3-  0.1+  
100507 900  0.8+  0.3-    100517 C23  0.7-  0.0     100605 A71  1.1+  0.1-  
100507 900  0.0   0.0     100517 C23  0.4-  0.3-    100605 A71  0.6-  0.0   
100507 300  0.4+  1.5-    100517 J38  0.2+  0.5+    100605 A71  0.3+  0.2+  
100507 300  0.2+  1.1-    100517 C23  0.2+  0.8+    100605 235  0.2+  0.2-  
100507 367  0.4+  0.3-    100517 J38  0.4+  0.4+    100605 235  0.0   0.3-  
100507 300  0.3+  0.3-    100517 J38  0.1+  0.6+    100606 D93  0.1-  0.1+  
100507 367  0.4+  0.2-    100518 C23  1.0+  1.1-    100606 D93  0.1+  0.2+  
100507 367  0.1+  0.2-    100518 H10  0.1-  0.2+    100606 D93  0.3+  0.4+  
100507 D88  0.1-  0.4+    100518 H06  0.5+  0.4+    100606 157  0.0   0.1+  
100507 D88  0.1+  0.3+    100518 H06  0.6+  0.6+    100606 157  0.3-  0.1-  
100507 D88  0.1+  0.2-    100518 H06  0.5+  0.4+    100606 157  0.1-  0.1-  
100507 349  0.6+  0.3-    100518 H10  0.2-  0.0     100606 B09  0.5+  0.4-  
100507 349  0.4+  0.3-    100518 D96  0.1-  0.1-    100606 585  0.9-  0.8+  
100507 900  0.1-  0.1-    100518 D96  0.7-  0.1-    100606 B09  0.4+  0.1-  
100507 900  0.0   0.1+    100518 B90  0.5+  0.2-    100606 585  0.1-  0.1+  
